Location: Siratepeler Tepesi
(39.1042°N, 32.0781°E)
Time: 01:03:01
(UTC+00:00)

SKYMED 3 - Pass Details

Date: 11 April 2026
Orbit: 535 x 558 km, 97.8° (Epoch: 11 May)

Event Time Altitude Azimuth Distance (km) Brightness Sun altitude
Rises 18:06:47 0° 12° (NNE) 2,693 8.1 -19.3°
Reaches altitude 10° 18:08:54 10° 13° (NNE) 1,796 7.1 -19.7°
Maximum altitude 18:12:47 87° 101° (E) 541 4.1 -20.3°
Enters shadow 18:14:24 34° 190° (S) 891 5.2 -20.6°
